Location: Bainbridge
(30.9040°N, 84.5757°W)
Time: 12:55:52
(UTC+00:00)

Hubble Space Telescope - Pass Details

Date: 06 October 2024
Orbit: 501 x 504 km, 28.5° (Epoch: 12 November)

Event Time Altitude Azimuth Distance (km) Brightness Sun altitude
Exits shadow 09:37:45 25° 140° (SE) 1,025 2.4 -26.0°
Drops below altitude 10° 09:39:42 10° 122° (ESE) 1,691 3.9 -25.6°
Sets 09:42:00 0° 115° (ESE) 2,572 5.1 -25.1°
